Location: Campestrin
(46.4667°N, 11.7167°E)
Time: 15:47:23
(UTC+00:00)

Ariane Rocket - Pass Details

Date: 18 April 2021
Orbit: 760 x 770 km, 98.7° (Epoch: 06 May)

Event Time Altitude Azimuth Distance (km) Brightness Sun altitude
Exits shadow 18:27:18 - 139° (SE) 3,060 5.6 -4.4°
Reaches altitude 10° 18:29:20 10° 132° (SE) 2,291 4.9 -4.8°
Maximum altitude 18:33:56 37° 66° (ENE) 1,179 3.7 -5.5°
Drops below altitude 10° 18:38:33 10° 1° (N) 2,303 5.8 -6.2°
Sets 18:40:59 0° 353° (N) 3,233 6.7 -6.6°
